Regional Weather Roundup
Issued by NWS

Home | Current Version | Previous Version | Text Only | Print | Product List | Glossary On
Versions: 1 2 3 4 5 6 7 8 9 10 11 12 13 14 15 16 17 18 19 20 21 22 23 24 25 26 27 28 29 30 31 32 33 34 35 36 37 38 39 40 41 42 43 44 45 46 47 48 49 50
000
ASUS45 KSLC 202210
RWRUT

UTAH REGIONAL WEATHER ROUNDUP
NATIONAL WEATHER SERVICE SALT LAKE CITY UT
300 PM MST TUE FEB 20 2018

UTZ001>011-023>025-202300-

NORTHERN UTAH

CITY           SKY/WX    TMP DP  RH WIND       PRES   REMARKS
BRIGHAM CITY   PTSUNNY   25   5  42 SW12      30.12R WCI  14
DUGWAY         MOSUNNY   25  13  61 S6        30.10S WCI  18
HILL AFB       PTSUNNY   19   4  52 CALM      30.08R
LOGAN            N/A     23   7  50 N3        30.09R
OGDEN            N/A     21   5  50 VRB5      30.09R WCI  15
SALT LAKE CITY PTSUNNY   25   9  50 N8        30.10S WCI  16
TOOELE VALLEY    N/A     23  12  63 N7        30.11R WCI  15
WENDOVER         N/A     27   8  44 E9        30.08S WCI  18
HEBER CITY       N/A     27   5  39 W10       29.98S WCI  17
WEST JORDAN    CLOUDY    20  13  75 W3        30.09S

$$

UTZ011>015-024>027-202300-

CENTRAL/NORTHEAST UTAH

CITY           SKY/WX    TMP DP  RH WIND       PRES   REMARKS
PROVO AIRPORT    N/A     25  12  58 SW6       30.10R WCI  18
MOAB/CANYONLAN   N/A     35  -3  19 W13       29.98S WCI  26
DELTA            N/A     23  12  63 CALM      30.08R
PRICE          CLOUDY    25 -11  20 W13G21    29.94R WCI  14
RICHFIELD      PTSUNNY   25  10  54 NE6       30.03R WCI  18
VERNAL           N/A     19   6  57 E5        30.01S WCI  12

$$

UTZ013>016-019>022-027-202300-

SOUTHERN UTAH

CITY           SKY/WX    TMP DP  RH WIND       PRES   REMARKS
BRYCE CANYON   CLOUDY    21   3  45 NW8G20    29.90R WCI  11
CEDAR CITY       N/A     25  15  66 NE6       29.99S WCI  18
MILFORD          N/A     23  17  78 CALM      30.04S
ST GEORGE        N/A     42  -2  15 W9        30.08F
HANKSVILLE     PTSUNNY   34  -4  19 SW6       30.03R WCI  29
KANAB          SUNNY     36  -6  17 SW10      30.05R WCI  28
BLANDING         N/A     29   8  40 S9        30.04R WCI  21

$$

REGIONAL REPORTS     COLORADO/ARIZONA

CITY           SKY/WX    TMP DP  RH WIND       PRES   REMARKS
CRAIG, CO        N/A     16   5  62 CALM      29.98R
GRAND JUNCTION   N/A     31  10  41 N5        29.99R WCI  26
RIFLE, CO        N/A     26   7  44 W12G17    29.96R WCI  16
MONTROSE, CO   LGT SNOW  23  18  81 N5        30.00R WCI  17
CORTEZ, CO     PTSUNNY   31  10  41 SW10G18   29.98R WCI  22
COLORADO CITY    N/A     36   5  27 W6        30.05S WCI  31
PAGE, AZ       CLOUDY    37   3  24 MISG      30.00S
GRAND CANYON   PTSUNNY   24   4  42 W5G14     29.98R WCI  18
KINGMAN, AZ      N/A     44   5  20 CALM      30.05F
FLAGSTAFF, AZ    N/A     28  -6  22 W13G20    29.95R WCI  17

$$

REGIONAL REPORTS    NEVADA/IDAHO/WYOMING

CITY           SKY/WX    TMP DP  RH WIND       PRES   REMARKS
LAS VEGAS, NV    N/A     47  -1  13 SW3       30.10F
ELY, NY        PTSUNNY   22   1  40 VRB3      29.96F
ELKO, NV         N/A     23   5  46 SW13      30.03F WCI  11
POCATELLO, ID  PTSUNNY   17   5  59 SW16      30.09R WCI   2
BURLEY, ID       N/A     18   4  54 W8        30.09S WCI   8
FORT BRIDGER,    N/A     15   5  63 W21G26    29.94R HAZE    WCI  -2
EVANSTON, WY   LGT SNOW  11   5  77 W13       29.91R WCI  -4
ROCK SPRINGS,    N/A     14   1  56 W15       29.92R WCI  -1

$$



USA.gov is the U.S. government's official web portal to all federal, state and local government web resources and services.